[[{"header":{"parameterUnit":"m.s-1","parameterCategory":1,"la1":30.2991,"la2":30.254,"lo1":-89.0895,"lo2":-89.0444,"dy":0.0017,"dx":0.0017,"nx":28,"ny":28,"refTime":"2025-03-19T03:00:00:Z","depth":0,"parameterNumber":2,"parameterNumberName":"U-component_of_WINDS"},"data":[0,0,0,0,0,0,0,0,0,0,0,0,0,0,0,0,0,0,0,0,0,0,0,0,0,0,0,0,0,0,0,0,0,0,0,0,0,0,0,0,0,0,0,0,0,0,0,0,0,0,0,0,0,0,0,0,0,0,7.1353,7.1355,0,7.1529,7.1531,7.1533,7.1494,7.149,7.1487,7.1484,7.1667,7.1675,7.1682,0,0,0,0,0,0,0,0,0,0,0,0,0,7.0989,7.0996,7.1353,7.1355,7.1357,7.1528,7.1531,7.1533,7.1494,7.149,7.1486,7.1482,7.1664,7.1674,7.1683,0,0,0,0,0,0,0,0,0,0,0,0,0,7.1154,7.0998,7.1352,7.1358,7.136,7.1528,7.1531,7.1534,7.1495,7.149,7.1485,7.148,7.1661,7.1673,7.1684,7.1858,0,0,7.1721,7.1726,0,0,0,0,0,0,0,0,7.1145,7.1168,7.1355,7.1358,7.1361,7.1484,7.147,7.1643,7.1496,7.1444,7.1484,7.1478,7.161,7.1626,7.167,7.1866,7.1874,7.1722,7.1729,7.1734,7.1738,0,0,0,0,0,0,0,7.1134,7.116,7.1422,7.1358,7.1362,7.1354,7.1372,7.1502,7.1553,7.1448,7.1446,7.1467,7.1611,7.1659,7.1674,7.1877,7.1722,7.1732,7.174,7.1744,7.223,7.2235,0,0,0,0,0,0,7.1119,7.1151,7.1417,7.1428,7.1238,7.1365,7.1385,7.145,7.1551,7.1562,7.1471,7.1464,7.1641,7.166,7.168,7.1893,7.1734,7.1746,7.1752,7.2224,7.2231,7.2237,0,0,0,0,0,0,7.1111,7.1143,7.141,7.1289,7.1322,7.1376,7.1449,7.1456,7.1503,7.1569,7.1578,7.151,7.1637,7.1664,7.1815,7.1899,7.1751,7.1762,7.2217,7.2226,7.2234,7.2318,0,0,0,0,0,0,7.1101,7.1141,7.1205,7.129,7.1329,7.154,7.1454,7.1463,7.1524,7.1517,7.1608,7.1618,7.1636,7.1797,7.1827,7.1912,7.1771,7.221,7.2221,7.2231,7.2308,7.2328,7.2346,0,0,0,0,0,7.1088,7.1221,7.1209,7.1241,7.141,7.1544,7.1566,7.1583,7.153,7.1597,7.164,7.1615,7.1885,7.1813,7.1846,7.1936,7.2205,7.2218,7.2231,7.2299,7.2324,7.2345,0,0,0,0,0,0,7.1144,7.1232,7.1219,7.1383,7.1457,7.1537,7.1622,7.1608,7.1698,7.1688,7.1706,7.1727,7.1882,7.1924,7.1843,7.2112,7.2038,7.2058,7.2079,7.2103,7.2121,7.2108,7.1781,0,0,0,0,0,7.1176,7.1276,7.1348,7.1486,7.1524,7.1567,7.1626,7.1633,7.1709,7.174,7.1794,7.1871,7.1974,7.204,7.2138,7.2314,7.2335,7.2393,7.2412,7.2427,7.2444,7.2545,7.2573,7.228,7.2279,7.2279,0,0,7.1242,7.1302,7.1364,7.1499,7.1557,7.1662,7.1593,7.1706,7.1786,7.1758,7.1904,7.1947,7.2035,7.22,7.2276,7.224,7.2531,7.2444,7.2455,7.2464,7.2561,7.2589,7.2613,7.2288,7.2287,7.2285,0,0,7.1416,7.1471,7.1594,7.1654,7.1742,7.1771,7.18,7.1885,7.1912,7.2059,7.2042,7.2138,7.2313,7.2377,7.2432,7.2637,7.2619,7.2669,7.2767,7.2865,7.2888,7.2909,7.2985,7.3011,7.2685,7.2686,7.2686,0,7.1487,7.1644,7.1659,7.1776,7.1837,7.1817,7.1944,7.2001,7.2118,7.2162,7.212,7.2343,7.24,7.2582,7.2633,7.2677,7.2714,7.2658,7.2883,7.2904,7.2924,7.2996,7.3024,7.2691,7.2691,7.269,7.269,0,7.1729,7.1838,7.1927,7.204,7.2112,7.2232,7.2268,7.234,7.2342,7.2376,7.2529,7.2597,7.271,7.2754,7.2757,7.2939,7.2915,7.2878,7.2804,7.2957,7.3026,7.3053,7.2699,7.2697,7.2696,7.2694,0,0,7.194,7.2063,7.2096,7.2149,7.2247,7.2333,7.2455,7.2566,7.2628,7.271,7.2815,7.2966,7.2934,7.2998,7.3008,7.3094,7.3256,7.3047,7.305,7.3086,7.3465,7.3492,7.3523,7.3244,7.325,7.3254,7.3458,0,7.2125,7.2339,7.2358,7.2551,7.2654,7.2639,7.2746,7.282,7.2856,7.2951,7.2992,7.3099,7.3048,7.3087,7.3171,7.3218,7.3332,7.3203,7.3345,7.3349,7.3324,7.3559,7.3587,7.3776,7.3485,7.3489,7.3492,0,7.2368,7.2459,7.2662,7.2749,7.2794,7.2889,7.2994,7.3084,7.3169,7.319,7.3263,7.3263,7.3392,7.3313,7.3494,7.3406,7.3466,7.3498,7.3506,7.352,7.343,7.3581,7.3836,7.3865,7.3534,7.3531,7.3528,0,7.2506,7.2678,7.2823,7.2868,7.2973,7.3042,7.3089,7.3169,7.3235,7.3328,7.3373,7.3479,7.3538,7.3623,7.3653,7.3592,7.3834,7.3756,7.3857,7.3856,7.3908,7.3904,7.4178,7.3945,7.3944,7.3944,7.3943,0,7.271,7.2836,7.2886,7.2975,7.3117,7.314,7.328,7.3324,7.3396,7.3496,7.349,7.3584,7.3618,7.3719,7.3744,7.3892,7.3918,7.3941,7.3946,7.3942,7.3939,7.3981,7.397,7.3951,7.395,7.3948,7.3947,0,7.2887,7.2925,7.3083,7.317,7.3196,7.3297,7.3373,7.3461,7.3497,7.3624,7.3655,7.3712,7.3831,7.387,7.4014,7.4031,7.4204,7.4197,7.4175,7.4176,7.4276,7.4267,7.4587,7.4631,7.4367,7.437,7.4372,0,7.3015,7.3112,7.3211,7.3277,7.3327,7.3433,7.3502,7.353,7.3602,7.3709,7.3785,7.3903,7.3998,7.419,7.4246,7.4357,7.4354,7.4459,7.4371,7.4365,7.4359,7.4353,7.4365,7.4475,7.4478,7.448,7.4482,0,7.324,7.3255,7.3353,7.3461,7.3543,7.3628,7.3711,7.3766,7.3806,7.3888,7.401,7.4084,7.4233,7.4351,7.4466,7.4517,7.4509,7.451,7.454,7.4536,7.4521,7.4533,7.4222,7.4502,7.45,7.4499,7.4498,7.4497,7.3398,7.3485,7.3569,7.368,7.3745,7.3824,7.3912,7.396,7.4061,7.4183,7.4194,7.4327,7.4414,7.4567,7.4624,7.473,7.4701,7.4743,7.4754,7.4764,7.4773,7.4503,7.4751,7.4751,7.475,7.475,7.4749,0,7.3624,7.3679,7.3781,7.3897,7.3986,7.3969,7.4061,7.4137,7.4253,7.4334,7.443,7.4572,7.4688,7.4755,7.4872,7.4944,7.4944,7.4974,7.497,7.4983,7.4792,7.4755,7.4973,7.4973,7.4973,7.4973,7.4973,7.4973,7.3753,7.3899,7.3925,7.4106,7.416,7.4288,7.4343,7.4417,7.4482,7.4641,7.4738,7.478,7.4858,7.4981,7.5088,7.5105,7.515,7.5184,7.5198,7.5019,7.4996,7.4974,7.494,7.5193,7.5193,7.5381,7.5383,7.5384]},{"header":{"parameterUnit":"m.s-1","parameterCategory":1,"la1":30.2991,"la2":30.254,"lo1":-89.0895,"lo2":-89.0444,"dy":0.0017,"dx":0.0017,"nx":28,"ny":28,"refTime":"2025-03-19T03:00:00:Z","depth":0,"parameterNumber":3,"parameterNumberName":"V-component_of_WINDS"},"data":[0,0,0,0,0,0,0,0,0,0,0,0,0,0,0,0,0,0,0,0,0,0,0,0,0,0,0,0,0,0,0,0,0,0,0,0,0,0,0,0,0,0,0,0,0,0,0,0,0,0,0,0,0,0,0,0,0,0,-6.2847,-6.2848,0,-6.2936,-6.2937,-6.2938,-6.2893,-6.2891,-6.2889,-6.2886,-6.2973,-6.2977,-6.2981,0,0,0,0,0,0,0,0,0,0,0,0,0,-6.2635,-6.264,-6.2847,-6.2848,-6.2849,-6.2935,-6.2937,-6.2938,-6.2894,-6.2891,-6.2888,-6.2885,-6.2971,-6.2976,-6.2982,0,0,0,0,0,0,0,0,0,0,0,0,0,-6.2726,-6.2641,-6.2847,-6.2838,-6.2838,-6.2935,-6.2937,-6.2938,-6.2894,-6.2891,-6.2887,-6.2884,-6.2969,-6.2976,-6.2983,-6.3093,0,0,-6.3003,-6.3006,0,0,0,0,0,0,0,0,-6.2721,-6.2734,-6.2838,-6.2838,-6.2839,-6.29,-6.2894,-6.299,-6.2895,-6.2873,-6.2886,-6.2882,-6.2951,-6.2959,-6.2983,-6.3097,-6.3101,-6.3003,-6.3008,-6.301,-6.3012,0,0,0,0,0,0,0,-6.2715,-6.273,-6.2882,-6.2839,-6.284,-6.2828,-6.2837,-6.2912,-6.293,-6.2874,-6.2871,-6.2883,-6.295,-6.2977,-6.2985,-6.3102,-6.3003,-6.3009,-6.3013,-6.3016,-6.331,-6.3314,0,0,0,0,0,0,-6.2709,-6.2725,-6.2879,-6.2885,-6.277,-6.2834,-6.2844,-6.2884,-6.2929,-6.2933,-6.2885,-6.288,-6.2967,-6.2977,-6.2988,-6.3119,-6.301,-6.3017,-6.302,-6.3306,-6.3311,-6.3315,0,0,0,0,0,0,-6.2705,-6.2724,-6.2876,-6.2804,-6.2822,-6.2842,-6.2886,-6.2887,-6.2913,-6.2938,-6.294,-6.2909,-6.2965,-6.2978,-6.3067,-6.3122,-6.302,-6.3026,-6.3302,-6.3308,-6.3313,-6.3384,0,0,0,0,0,0,-6.2699,-6.2722,-6.2765,-6.2805,-6.2826,-6.2955,-6.2889,-6.2891,-6.2926,-6.292,-6.296,-6.2964,-6.2963,-6.3058,-6.3074,-6.3129,-6.3031,-6.3297,-6.3304,-6.3311,-6.3377,-6.3392,-6.3404,0,0,0,0,0,-6.2692,-6.2781,-6.2768,-6.2787,-6.2881,-6.2959,-6.297,-6.2969,-6.293,-6.2973,-6.2988,-6.2963,-6.3113,-6.3067,-6.3085,-6.3143,-6.3294,-6.3302,-6.3311,-6.3371,-6.3389,-6.3404,0,0,0,0,0,0,-6.2745,-6.2786,-6.2772,-6.2877,-6.2915,-6.2951,-6.3005,-6.2988,-6.3036,-6.3028,-6.3023,-6.3032,-6.3125,-6.3143,-6.3091,-6.3252,-6.3197,-6.321,-6.3237,-6.3254,-6.3268,-6.3261,-6.3036,0,0,0,0,0,-6.277,-6.2831,-6.2862,-6.2952,-6.2972,-6.2986,-6.3019,-6.3015,-6.3053,-6.3068,-6.309,-6.3127,-6.3183,-6.3219,-6.3272,-6.338,-6.3387,-6.3429,-6.3442,-6.3453,-6.3464,-6.3522,-6.354,-6.3343,-6.3343,-6.3343,0,0,-6.282,-6.285,-6.2889,-6.2964,-6.2993,-6.3055,-6.2999,-6.3067,-6.3113,-6.3078,-6.3164,-6.3182,-6.3222,-6.3321,-6.3366,-6.3339,-6.352,-6.3464,-6.3473,-6.3478,-6.3532,-6.3551,-6.3568,-6.3349,-6.3348,-6.3347,0,0,-6.2944,-6.2973,-6.3051,-6.3081,-6.3126,-6.3135,-6.3153,-6.3192,-6.3203,-6.3289,-6.3265,-6.3318,-6.3414,-6.3444,-6.3472,-6.3608,-6.3585,-6.3625,-6.3695,-6.3752,-6.3767,-6.3781,-6.3829,-6.3846,-6.3636,-6.3636,-6.3636,0,-6.3,-6.3095,-6.3093,-6.3163,-6.3197,-6.317,-6.3248,-6.3277,-6.3336,-6.3359,-6.3329,-6.3449,-6.3474,-6.358,-6.3613,-6.3637,-6.3657,-6.362,-6.3766,-6.3779,-6.3792,-6.3837,-6.3856,-6.364,-6.364,-6.3639,-6.3639,0,-6.3162,-6.3227,-6.3285,-6.3344,-6.3384,-6.3458,-6.3466,-6.3506,-6.3498,-6.351,-6.3597,-6.3627,-6.3685,-6.371,-6.3702,-6.3814,-6.3796,-6.3766,-6.3711,-6.3815,-6.3858,-6.3875,-6.3647,-6.3645,-6.3644,-6.3643,0,0,-6.3321,-6.338,-6.3401,-6.3427,-6.3475,-6.3525,-6.3597,-6.3655,-6.369,-6.3731,-6.3791,-6.3873,-6.3845,-6.3877,-6.3873,-6.3922,-6.4027,-6.3885,-6.3886,-6.391,-6.4151,-6.4174,-6.4194,-6.4013,-6.4016,-6.4019,-6.4148,0,-6.3448,-6.3576,-6.3577,-6.3694,-6.3754,-6.373,-6.3793,-6.3828,-6.384,-6.3892,-6.3904,-6.3963,-6.3922,-6.3941,-6.3989,-6.4004,-6.4075,-6.3995,-6.4067,-6.407,-6.4057,-6.4216,-6.424,-6.4361,-6.4165,-6.4167,-6.4169,0,-6.3613,-6.3662,-6.3786,-6.3825,-6.385,-6.3907,-6.396,-6.401,-6.4049,-6.4055,-6.4091,-6.4078,-6.415,-6.4094,-6.4192,-6.4137,-6.4167,-6.4179,-6.4183,-6.4189,-6.4126,-6.4226,-6.4399,-6.4417,-6.4196,-6.4194,-6.4192,0,-6.3717,-6.3813,-6.39,-6.3924,-6.3971,-6.4012,-6.4033,-6.4069,-6.4104,-6.415,-6.4172,-6.4226,-6.4255,-6.4296,-6.4298,-6.4256,-6.4397,-6.434,-6.4403,-6.4403,-6.4433,-6.4431,-6.4612,-6.4453,-6.4453,-6.4452,-6.4452,0,-6.3859,-6.3935,-6.3947,-6.4001,-6.4085,-6.4085,-6.4168,-6.4186,-6.4218,-6.4273,-6.4255,-6.4306,-6.4306,-6.4359,-6.4361,-6.4442,-6.4455,-6.446,-6.446,-6.4462,-6.4461,-6.4481,-6.4472,-6.4457,-6.4456,-6.4455,-6.4454,0,-6.3989,-6.4,-6.4093,-6.4131,-6.4142,-6.4203,-6.4235,-6.4285,-6.4295,-6.4365,-6.4382,-6.4398,-6.4459,-6.4465,-6.4536,-6.4537,-6.4634,-6.4625,-6.4622,-6.462,-6.4682,-6.4676,-6.4882,-6.4908,-6.4732,-6.4734,-6.4735,0,-6.4078,-6.4137,-6.4182,-6.4218,-6.4242,-6.4301,-6.4337,-6.4338,-6.4376,-6.4425,-6.4469,-6.4528,-6.4575,-6.4673,-6.4691,-6.4744,-6.4736,-6.4804,-6.4743,-6.4744,-6.4736,-6.4732,-6.4738,-6.4816,-6.4818,-6.4819,-6.482,0,-6.4236,-6.4238,-6.4292,-6.4348,-6.4392,-6.4435,-6.4476,-6.4506,-6.4512,-6.4555,-6.4618,-6.4655,-6.4727,-6.4786,-6.4839,-6.4859,-6.4841,-6.484,-6.4857,-6.4859,-6.4855,-6.4857,-6.4653,-6.4835,-6.4833,-6.4832,-6.4831,-6.4831,-6.4348,-6.4399,-6.4439,-6.4498,-6.453,-6.4568,-6.4617,-6.4634,-6.4687,-6.4747,-6.4744,-6.4813,-6.485,-6.4919,-6.4943,-6.4996,-6.4973,-6.4998,-6.5004,-6.501,-6.5016,-6.4847,-6.5006,-6.5005,-6.5005,-6.5005,-6.5004,0,-6.4504,-6.4529,-6.4584,-6.4642,-6.4689,-6.4669,-6.4713,-6.4753,-6.4815,-6.4851,-6.4899,-6.4971,-6.5027,-6.5049,-6.5105,-6.5143,-6.5135,-6.5157,-6.5154,-6.5159,-6.5034,-6.5014,-6.5162,-6.5162,-6.5162,-6.5162,-6.5162,-6.5162,-6.4591,-6.4676,-6.4684,-6.4784,-6.4807,-6.4876,-6.4902,-6.4937,-6.4966,-6.5048,-6.5096,-6.511,-6.514,-6.5198,-6.5248,-6.5253,-6.5274,-6.5299,-6.53,-6.5183,-6.5167,-6.5152,-6.5133,-6.5304,-6.5304,-6.542,-6.5421,-6.5422]}]]